Location: Pasadena, ca
(34.1243°N, 118.1037°W)
Time: 01:34:27
(UTC-08:00)

OTV 5 (USA 277) - Pass Details

Date: 18 November 2017
Orbit: 404 x 417 km, 43.0° (Epoch: 07 September)

Event Time Altitude Azimuth Distance (km) Brightness Sun altitude
Exits shadow 05:10:01 24° 341° (NNW) 887 ? -16.2°
Maximum altitude 05:11:09 30° 19° (NNE) 743 ? -16.0°
Drops below altitude 10° 05:14:07 10° 84° (E) 1,452 ? -15.4°
Sets 05:16:21 0° 95° (E) 2,309 ? -15.0°
